This demonstration page uses our WeatherBlox Daily Observations layout. Learn more.

Left ArrowRight Arrow

38.80484, -77.04692

Hourly Observations for May 3, 2015

Temp ( °F °C ) Dew Point ( °F °C ) Humidity (%) Winds ( mph kmh ) Pressure ( in mb ) Visibility ( mi km ) Precip ( " mm )
12:52 am 00:52 Partly Cloudy 59 15 49 9.4 69 69 S 8 13 30.03 1017 10 16 N/A
1:52 am 01:52 Mostly Cloudy 58 14.4 51 10.6 78 78 S 9 15 30.03 1017 10 16 N/A
2:52 am 02:52 Mostly Cloudy 58 14.4 50 10 75 75 S 7 11 30.03 1017 10 16 N/A
3:52 am 03:52 Mostly Cloudy 57 13.9 50 10 78 78 SSW 6 9 30.04 1017 10 16 N/A
4:52 am 04:52 Mostly Cloudy 57 13.9 49 9.4 74 74 SSW 5 7 30.05 1018 10 16 N/A
5:52 am 05:52 Mostly Clear 57 13.9 49 9.4 74 74 SSW 3 6 30.06 1018 10 16 N/A
6:52 am 06:52 Partly Cloudy 58 14.4 45 7.2 62 62 N N/A 30.08 1019 10 16 N/A
7:52 am 07:52 Partly Cloudy 62 16.7 47 8.3 58 58 N N/A 30.11 1020 10 16 N/A
8:52 am 08:52 Partly Cloudy 65 18.3 48 8.9 54 54 N N/A 30.12 1020 10 16 N/A
9:52 am 09:52 Partly Cloudy 73 22.8 44 6.7 35 35 NNW 10 17 30.13 1020 10 16 N/A
10:52 am 10:52 Partly Cloudy 77 25 44 6.7 31 31 N 6 9 30.14 1021 10 16 N/A
11:52 am 11:52 Partly Cloudy 77 25 41 5 28 28 E 3 6 30.13 1020 10 16 N/A
12:52 pm 12:52 Partly Cloudy 78 25.6 45 7.2 31 31 SE 3 6 30.12 1020 10 16 N/A
1:52 pm 13:52 Partly Cloudy 82 27.8 42 5.6 24 24 N N/A 30.11 1020 10 16 N/A
2:52 pm 14:52 Partly Cloudy 84 28.9 41 5 22 22 N N/A 30.10 1019 10 16 N/A
3:52 pm 15:52 Partly Cloudy 83 28.3 45 7.2 26 26 N N/A 30.09 1019 10 16 N/A
4:52 pm 16:52 Mostly Cloudy 80 26.7 46 7.8 30 30 S 9 15 30.08 1019 10 16 N/A
5:52 pm 17:52 Mostly Cloudy 78 25.6 51 10.6 39 39 S 6 9 30.09 1019 10 16 N/A
6:52 pm 18:52 Mostly Cloudy 77 25 48 8.9 36 36 SSW 7 11 30.09 1019 10 16 N/A
7:52 pm 19:52 Partly Cloudy 75 23.9 44 6.7 33 33 SSW 6 9 30.09 1019 10 16 N/A
8:52 pm 20:52 Mostly Clear 70 21.1 51 10.6 51 51 S 7 11 30.11 1020 10 16 N/A
9:52 pm 21:52 Clear 67 19.4 54 12.2 63 63 S 7 11 30.14 1021 10 16 N/A
10:52 pm 22:52 Clear 65 18.3 54 12.2 68 68 S 7 11 30.15 1021 10 16 N/A
11:52 pm 23:52 Clear 65 18.3 48 8.9 54 54 SSW 7 11 30.16 1021 10 16 N/A

Powered by AerisWeather